Location: Melizzano
(41.1500°N, 14.5000°E)
Time: 19:02:26
(UTC+00:00)

Cosmos 2181 Rocket - Pass Details

Date: 11 May 2021
Orbit: 952 x 1014 km, 82.9° (Epoch: 21 June)

Event Time Altitude Azimuth Distance (km) Brightness Sun altitude
Exits shadow 21:44:34 68° 93° (E) 1,030 3.9 -28.3°
Drops below altitude 10° 21:50:38 10° 13° (NNE) 2,691 7.0 -28.7°
Sets 21:53:09 0° 11° (N) 3,638 7.9 -28.8°
